Regional Weather Roundup
Issued by NWS

Home | Current Version | Previous Version | Text Only | Print | Product List | Glossary Off
Versions: 1 2 3 4 5 6 7 8 9 10 11 12 13 14 15 16 17 18 19 20 21 22 23 24 25 26 27 28 29 30 31 32 33 34 35 36 37 38 39 40 41 42 43 44 45 46 47 48 49 50

000
ASUS43 KFSD 310302
RWRSD

WEATHER ROUNDUP FOR SOUTH DAKOTA
NATIONAL WEATHER SERVICE SIOUX FALLS SD
1000 PM CDT THU JUL 30 2015

NOTE: "FAIR" INDICATES FEW OR NO CLOUDS BELOW 12,000 FEET WITH NO
SIGNIFICANT WEATHER AND/OR OBSTRUCTIONS TO VISIBILITY.


SDZ001>005-009-010-012>017-310400-
NORTHWEST AND NORTH CENTRAL SOUTH DAKOTA

CITY           SKY/WX    TMP DP  RH WIND       PRES   REMARKS
BUFFALO          N/A     72  48  42 E12       30.13R
FAITH            N/A     69  48  47 E8        30.17R
MOBRIDGE       CLEAR     71  53  52 NE9       30.11R
$$

SDZ012>016-024>037-041>051-057-063-072>074-310400-
SOUTHWEST AND SOUTH CENTRAL SOUTH DAKOTA

CITY           SKY/WX    TMP DP  RH WIND       PRES   REMARKS
RAPID CTY ARPT CLEAR     66  56  70 CALM      30.19S
PIERRE         CLEAR     71  55  56 NE9       30.10R
CUSTER         CLEAR     66  44  45 NE3       30.36R
ELLSWORTH AFB  CLEAR     75  50  41 W7        30.19R
PHILIP         CLEAR     75  52  44 S5        30.13R
PINE RIDGE     CLEAR     66  53  63 E7        30.21R
WINNER         FAIR      77  56  48 SE7       30.14R
$$

SDZ004>011-016>023-039-040-310400-
NORTHEAST SOUTH DAKOTA

CITY           SKY/WX    TMP DP  RH WIND       PRES   REMARKS
ABERDEEN       CLEAR     65  55  70 CALM      30.10R
WATERTOWN      CLEAR     72  58  61 NW7       30.11R
BROOKINGS      CLEAR     72  61  68 W5        30.12R
SISSETON         N/A     65  58  78 NW7       30.06R
$$

SDZ017-020-022-023-036>040-048>070-310400-
SOUTHEAST SOUTH DAKOTA

CITY           SKY/WX    TMP DP  RH WIND       PRES   REMARKS
SIOUX FALLS    PTCLDY    71  62  73 SW3       30.10R
HURON          CLEAR     72  63  73 N3        30.09R
CHAMBERLAIN    CLEAR     71  58  63 S5        30.10S
MITCHELL       CLEAR     73  62  68 CALM      30.09R
YANKTON        CLEAR     75  63  64 NE5       30.10R
$$

ABBREVIATIONS USED IN REMARKS
   TC - TEMPERATURE IN CELSIUS
  WCI - WIND CHILL INDEX
   HX - HEAT INDEX
  VSB - VISIBILITY



USA.gov is the U.S. government's official web portal to all federal, state and local government web resources and services.